Location: Ethel Rock
(53.4667°N, 4.5667°W)
Time: 01:10:36
(UTC+00:00)

CZ-2C R/B - Pass Details

Date: 24 October 2020
Orbit: 667 x 785 km, 98.2° (Epoch: 26 November)

Event Time Altitude Azimuth Distance (km) Brightness Sun altitude
Rises 05:33:22 0° 10° (N) 3,260 5.9 -13.9°
Reaches altitude 10° 05:35:53 10° 1° (N) 2,314 5.0 -13.5°
Maximum altitude 05:40:26 34° 299° (WNW) 1,231 3.1 -12.8°
Drops below altitude 10° 05:44:50 10° 235° (SW) 2,238 4.5 -12.2°
Enters shadow 05:45:05 - 234° (SW) 2,325 4.5 -12.1°
